Location: Tr�vern
(48.0333°N, 4.6000°W)
Time: 19:05:31
(UTC+00:00)

ATLAS 5 CENTAUR R/B - Pass Details

Date: 14 July 2020
Orbit: 274 x 14305 km, 60.7° (Epoch: 12 August)

Event Time Altitude Azimuth Distance (km) Brightness Sun altitude
Rises 02:41:00 0° 307° (NW) 2,458 5.2 -13.9°
Reaches altitude 10° 02:42:22 10° 301° (WNW) 1,860 4.5 -13.8°
Maximum altitude 02:46:00 51° 224° (SW) 1,222 3.1 -13.5°
Drops below altitude 10° 02:57:44 10° 154° (SSE) 5,842 6.7 -12.3°
Sets 03:06:01 0° 152° (SSE) 8,921 7.7 -11.5°
